Regional Weather Roundup
Issued by NWS Wakefield, VA

Home | Current Version | Previous Version | Text Only | Print | Product List | Glossary Off
Versions: 1 2 3 4 5 6 7 8 9 10 11 12 13 14 15 16 17 18 19 20 21 22 23 24 25 26 27

000
ASUS41 KAKQ 231215
RWRAKQ

REGIONAL WEATHER ROUNDUP
NATIONAL WEATHER SERVICE WAKEFIELD VA
800 AM EDT SUN APR 23 2017

Note: "fair" indicates few or no clouds below 12,000 feet with no
significant weather and/or obstructions to visibility. * = Denotes
station may not report precipitation (e.g., rain,snow,etc.),
thunder or fog.

VAZ042-051-052>054-056-231300-
NORTHERN VIRGINIA

CITY           SKY/WX    TMP DP  RH WIND       PRES   REMARKS
WASH NATIONAL  CLOUDY    49  40  71 N14       30.12R
DULLES         CLOUDY    46  38  73 N8        30.12R
FORT BELVOIR   CLOUDY    48  39  71 CALM      30.13R
QUANTICO       PTSUNNY   51  43  74 NE16      30.14R
FREDERICKSBRG* MOSUNNY   49  48  95 N8        30.12R
STAFFORD*      CLOUDY    47  45  92 N6        30.16R
WARRENTON      PTSUNNY   47  39  74 NE5       30.13R
CULPEPER*      CLOUDY    47  43  84 N3        30.14R
MANASSAS*        N/A     46  42  86 N7        30.14R
LEESBURG*      MOSUNNY   46  41  81 NE7       30.13S
WINCHESTER     MOSUNNY   43  37  81 CALM      30.13S
FRONT ROYAL*   MOSUNNY   43  43 100 CALM      30.13R
LURAY*         MOSUNNY   45  43  93 N8        30.12R
$$

VAZ048-049-060>072-079>083-231300-
CENTRAL AND SOUTH CENTRAL VIRGINIA

CITY           SKY/WX    TMP DP  RH WIND       PRES   REMARKS
RICHMOND       CLOUDY    51  51 100 NE7       30.09R
CHESTERFIELD*  CLOUDY   N/A N/A N/A N6        30.09R
PETERSBURG*    DRIZZLE   51  49  94 NE7       30.08R
HANOVER        CLOUDY    50  48  93 VRB6      30.11R FOG
TAPPAHANNOCK*  CLOUDY    51  49  92 NE3       30.10R
QUINTON*       CLOUDY    51  51 100 N8        30.08R
CHARLOTTSVILLE CLOUDY    49  42  77 NE9       30.10R
GORDONSVILLE*  PTSUNNY   48  42  80 NE9       30.10R
ORANGE*        CLOUDY    46  41  81 CALM      30.11R
LOUISA*        CLOUDY    52  48  87 NE6       30.10R
BUMPASS*       PTSUNNY   49  47  95 NE3       30.10R
FARMVILLE*     CLOUDY    51  50  98 N7        30.07S
CREWE*         CLOUDY    49  49 100 N3        30.07S
FORT PICKETT*  CLOUDY   N/A N/A N/A N8        30.07S
CHASE CITY*    CLOUDY    49  48  95 NE3       30.05S
CLARKSVILLE*   CLOUDY    50  50 100 NE6       30.04S
SOUTH HILL*    CLOUDY    50  50 100 N6        30.11R
LAWRENCEVILLE* CLOUDY    51  50  96 NE5       30.06R
EMPORIA*       RAIN      52  50  93 N7        30.07R
$$

VAZ088>098-231300-
SOUTHEAST VIRGINIA

CITY           SKY/WX    TMP DP  RH WIND       PRES   REMARKS
NORFOLK        CLOUDY    56  48  74 NE15G23   30.05R
VIRGINIA BEACH LGT RAIN  53  48  83 NE12      30.05R
NORFOLK NAVAL  CLOUDY    55  49  80 NE13      30.07R
WEST POINT*    PTSUNNY   51  50  94 CALM      30.09R
SALUDA*        FAIR      52  48  87 NE5       30.08R
NEWPORT NEWS   CLOUDY    54  51  90 NE3       30.06R
LANGLEY AFB    CLOUDY    55  50  82 NE17      30.06R
FORT EUSTIS    CLOUDY    54  50  87 N6        30.04R
WILLIAMSBURG*  CLOUDY    54  54 100 CALM      30.08R
HR EXEC AP*    CLOUDY    54  48  82 E7        30.03R
FRANKLIN*      RAIN      54  52  94 E8        30.05S
US460-WAKEFLD  CLOUDY    53  51  93 VRB7      30.05S
$$

VAZ020-022-025-037-045-231300-
WEST CENTRAL AND SOUTHWEST VIRGINIA

CITY           SKY/WX    TMP DP  RH WIND       PRES   REMARKS
STAUNTON*      CLOUDY    45  43  93 NE10      30.12R
WAYNESBORO*    CLOUDY    47  46  97 CALM      30.10R
HOT SPRINGS VA CLOUDY    39  36  87 E10       30.04S
LYNCHBURG      CLOUDY    49  44  83 NE10      30.08R
DANVILLE       CLOUDY    49  48  97 NE10      30.05R
SOUTH BOSTON*  CLOUDY    49  48  96 NE7       30.05R
MARTINSVILLE   DRIZZLE   48  44  87 NE7       30.07S
ROANOKE        CLOUDY    49  45  86 NE6       30.08R
BLACKSBURG     CLOUDY    45  43  91 E8G16     30.07R
DUBLIN*        CLOUDY    46  42  84 E8        30.06R
MARION*        CLOUDY    47  46  95 E13       30.03R FOG
HILLSVILLE*    CLOUDY    43  43 100 CALM      30.02R FOG
RICHLANDS*     CLOUDY    48  46  91 E10G22    29.94S
WISE*          RAIN      46  46 100 CALM      29.95R VSB<1/4
ABINGDON*      LGT RAIN  52  50  92 E14G25    29.94R
$$

MDZ021>025-VAZ099-100-231300-
SOUTHERN MARYLAND AND THE DELMARVA PENINSULA

CITY           SKY/WX    TMP DP  RH WIND       PRES   REMARKS
PATUXENT RIVER PTSUNNY   51  44  77 NE12      30.10R
BAY BRIDGE APT MOSUNNY   48  39  71 NE9       30.12R
LEONARDTOWN    PTSUNNY   50  41  71 NE3       30.12R
DOVER          CLOUDY    48  48 100 N9        30.11R
GEORGETOWN     CLOUDY    51  43  74 MISG      30.11R
EASTON         PTSUNNY   48  39  71 NE7       30.14
CAMBRIDGE      MOSUNNY   50  41  71 N6        30.11R
SALISBURY      CLOUDY    49  45  86 NE6       30.09R
OCEAN CITY     CLOUDY    51  44  77 N7        30.09R
WALLOPS ISLAND LGT RAIN  50  47  89 N8        30.08R
ACCOMACK*      LGT RAIN  51  48  89 N7        30.07R
$$

NCZ012>017-030>032-231300-
NORTH CENTRAL AND EASTERN NORTH CAROLINA

CITY           SKY/WX    TMP DP  RH WIND       PRES   REMARKS
ROANOKE RAPIDS DRIZZLE   52  52 100 N8        30.03F
RALEIGH        CLOUDY    54  52  93 NE9       30.00F
ELIZABETH CITY CLOUDY    54  53  97 NE13      30.04R
AHOSKIE*         N/A     53  53  97 N9        30.03S
EDENTON*       CLOUDY    56  53  89 NE10G18   30.03
CURRITUCK*     LGT RAIN  54  54 100 NE15G21   30.04R
KILL DEVIL HLS LGT RAIN  53  53 100 NE7       30.01S
MANTEO         LGT RAIN  54  52  94 NE14G21   30.03R
CAPE HATTERAS  CLOUDY    58  55  90 NE10G22   30.00R FOG
TARBORO*       NOT AVBL
GOLDSBORO      CLOUDY    56  56 100 NE14      29.99R
WASHINGTON     CLOUDY    55  53  94 NE6       30.03R
GREENVILLE     CLOUDY    55  55 100 NE6       30.04R
NEW BERN       CLOUDY    57  56  96 NE15G22   30.00R FOG
WILMINGTON     LGT RAIN  59  58  96 NE14      29.95S
$$

VAZ048-231300-
ELSEWHERE

CITY           SKY/WX    TMP DP  RH WIND       PRES   REMARKS
HARRISBURG PA  MOSUNNY   47  37  68 NW5       30.14R
BALTIMORE      MOSUNNY   49  39  68 NE8       30.12R
ANNAPOLIS      PTSUNNY   52  41  66 N7        30.12R
ANDREWS AFB    CLOUDY    47  41  80 N8        30.10R
PHILADELPHIA   PTSUNNY   48  37  65 N8        30.12R
HENDERSON NC   DRIZZLE   47  46  96 NE8       30.03F
GREENSBORO     LGT RAIN  49  48  97 NE15      30.01R
ROCKY MOUNT    LGT RAIN  54  54 100 NE10      30.02R FOG
$$

VAZ100-231300-
MARINE

STATION/POSITION TIME  TEMP    WIND        PRES    WAVE   SWELL
                       AIR SEA DIR/SP/G            HT/PER HT/PER
                 (UTC) (F)     (DEG/KT/KT) (MB)    (FT/S) (FT/S)
CAPE MAY NJ      1148   48 56   30/  4/ 10 1018.8R
LEWES DE         1148   50 54   30/ 12/ 14 1019.5R
15NM E FENWICK I 1150   51 52   30/ 16/ 19 1018.8R   5/12   3/12
OCEAN-CITY-INLET 1148   51 55   30/  8/ 12 1019.3R
WACHAPREAGUE VA  1148   51 62  360/  9/ 12 1017.7R
THOMAS POINT MD  1200   50 58   30/ 16/ 17   N/A
GOOSES REEF MD   1200   52 54   40/ 12/ 16 1020.0    2/ 2
COVE POINT MD    1148   50      50/ 11/ 15 1019.9R
SOLOMONS ISLAND  1148   51 61   40/  8/ 14   N/A
BISHOPS HEAD MD  1148   51 60   30/ 10/ 14 1019.4R
PINEY POINT MD   1148           70/  7/ 10   N/A
POTOMAC MD       1200   52 61   40/ 14/ 17 1018.0    1/ 2
CAMBRIDGE MD     1148   49 64   30/  8/ 10 1019.0R
LEWISETTA VA     1148   52 64   50/ 10/ 14 1018.3R
RAPPAHANNOCK LGT 1148           30/ 21/ 22 1018.3R
STINGRAY PT      1150   54      70/ 17/ 21 1017.7R
YORK RVR RNG VA  1148   56      50/ 15/ 18 1017.3R
YORKTOWN VA      1148   55 65   30/  8/ 11 1017.6R
JAMESTOWN VA     1200   53 68   40/  4/  8   N/A     0
DOMINION TERM VA 1148   55      40/  4/  8 1017.8R
KIPTOPEKE VA     1148      60   10/  6/  9   N/A
CHES BAY BRIDGE  1148   55 62   50/ 17/ 21 1017.4R
CAPE HENRY VA    1148   54      40/ 19/ 23   N/A
WILLOUBY STN VA  1148   55      40/ 15/ 17 1018.6R
S CRANEY ISL VA  1148   56      40/ 13/ 16 1017.3R
CAPE HENRY BUOY  1142      57                N/A     5/12   2/12
1ST LANDING BUOY 1200   56 60              1017.6    3/ 4
CAPE CHARLES BUO 1151      57                N/A     5/ 5   2/11
64NM E OF VA BCH 1150   53 54   20/ 19/ 23 1016.5R   6/ 6   2/11
DUCK PIER NC     1148   54 62   30/ 18/ 21 1016.4R
44100 DUCK FRF   1105      57                N/A     7/ 6   3/11
44056 DUCK FRF   1130      61                N/A     6/ 6   2/12
OREGON INLET NC  1148           10/ 13/ 19   N/A
HATTERAS NC      1148   58 70   30/ 14/ 21 1015.3R
DIAMOND SHLS NC  1150   63 75   10/ 19/ 21 1014.2R   5/12   2/12
CAPE LOOKOUT NC  1200   62      40/ 20/ 22 1015.0R
$$




USA.gov is the U.S. government's official web portal to all federal, state and local government web resources and services.